Regional Weather Roundup
Issued by NWS Sioux Falls, SD

Home | Current Version | Previous Version | Graphics & Text | Print | Product List | Glossary Off
Versions: 1 2 3 4 5 6 7 8 9 10 11 12 13 14 15 16 17 18 19 20 21 22 23 24 25 26 27 28 29 30 31 32 33 34 35 36 37 38 39 40 41 42 43 44 45 46 47 48 49 50

000
ASUS43 KFSD 211210
RWRFSD

WEATHER ROUNDUP FOR SE SOUTH DAKOTA/SW MINNESOTA/NW IOWA
NATIONAL WEATHER SERVICE SIOUX FALLS SD
700 AM CDT MON AUG 21 2017

NOTE: "FAIR" INDICATES FEW OR NO CLOUDS BELOW 12,000 FEET WITH NO
SIGNIFICANT WEATHER AND OR OBSTRUCTIONS TO VISIBILITY.


SDZ038>040-050-052>070-211300-
SOUTHEAST SOUTH DAKOTA

CITY           SKY/WX    TMP DP  RH WIND       PRES   REMARKS
BROOKINGS      CLOUDY    64  60  87 SE7       30.01F
CHAMBERLAIN    MOCLDY    63  62  99 E9        29.96S
6HR MIN TEMP:  60; 6HR MAX TEMP:  65;

HURON          CLOUDY    61  60  97 E6        29.97S
6HR MIN TEMP:  57; 6HR MAX TEMP:  62;

MADISON        CLOUDY    63  63 100 E5        30.02S
MITCHELL       CLOUDY    63  62  97 E3        29.98S
6HR MIN TEMP:  59; 6HR MAX TEMP:  64;

SIOUX FALLS    MOCLDY    65  64  97 E3        29.99S
6HR MIN TEMP:  65; 6HR MAX TEMP:  68;

WINNER         FAIR      63  62  97 SE8       29.95R
YANKTON        CLOUDY    69  65  86 E7        29.98R
$$

MNZ071-072-080-081-089-090-097-098-211300-
SOUTHWEST MINNESOTA

CITY           SKY/WX    TMP DP  RH WIND       PRES   REMARKS
FAIRMONT       CLOUDY    67  65  93 S8        30.01F
JACKSON        CLOUDY    66  64  94 CALM      30.01F
LUVERNE        CLOUDY    64  63  94 E3        30.00F
MARSHALL       PTCLDY    63  61  94 E6        30.01F
MONTEVIDEO     MOCLDY    57  57 100 CALM      30.03R
PIPESTONE      CLOUDY    66  63  88 CALM      30.01S
REDWOOD FALLS  MOCLDY    63  60  90 E9        30.01F
TRACY          CLOUDY    63  63  99 CALM      30.02S
WINDOM         CLEAR     64  63  94 CALM      30.01F FOG
WORTHINGTON    CLOUDY    66  66 100 SE8       30.01F FOG
$$

IAZ001>003-012>014-020>022-031-032-NEZ013-014-SDZ071-211300-
NORTHWEST IOWA

CITY           SKY/WX    TMP DP  RH WIND       PRES   REMARKS
ESTHERVILLE    CLOUDY    66  65  96 S7        30.01S
ORANGE CITY    CLOUDY    70  70 100 S3        30.00R
SHELDON        CLOUDY    68  66  94 SE8       29.98S FOG
SIOUX CITY     CLOUDY    69  65  86 S12       29.98F
6HR MIN TEMP:  67; 6HR MAX TEMP:  71; 6HR PCP: TRACE;

SPENCER        CLOUDY    67  65  93 S12       30.00F
6HR MIN TEMP:  67; 6HR MAX TEMP:  71; 6HR PCP:  0.08;

STORM LAKE     CLOUDY    66  63  88 SE5G15    30.01F
$$

ABBREVIATIONS USED IN REMARKS
   TC - TEMPERATURE IN CELSIUS
  WCI - WIND CHILL INDEX
   HX - HEAT INDEX
  VSB - VISIBILITY





USA.gov is the U.S. government's official web portal to all federal, state and local government web resources and services.